Location: Campillo
(40.8621°N, 4.2488°W)
Time: 11:57:16
(UTC+00:00)

Spot 2 Rocket - Pass Details

Date: 11 May 2021
Orbit: 757 x 772 km, 98.5° (Epoch: 13 June)

Event Time Altitude Azimuth Distance (km) Brightness Sun altitude
Exits shadow 22:02:16 41° 208° (SSW) 1,086 4.0 -23.6°
Maximum altitude 22:03:40 55° 259° (W) 909 3.9 -23.8°
Drops below altitude 10° 22:08:37 10° 338° (NNW) 2,296 7.0 -24.3°
Sets 22:10:59 0° 342° (NNW) 3,225 8.0 -24.5°
